Location: Lafig�re
(44.4503°N, 4.0357°E)
Time: 21:36:56
(UTC+00:00)

H-2A R/B - Visible Passes

Search period start: 28 November 2021 00:00
Search period end: 08 December 2021 00:00
Orbit: 733 x 837 km, 98.2° (Epoch: 28 November)

Date Brightness Start Highest point End Pass type
(mag) Time Alt. Az. Time Alt. Az. Time Alt. Az.
28 Nov 2.1 17:44:37 10° S 17:49:55 80° WSW 17:55:04 10° NNW visible
29 Nov 3.9 05:55:15 10° NNE 05:59:40 32° E 06:04:03 10° SSE visible
29 Nov 2.1 17:13:49 10° SSE 17:18:56 56° ENE 17:23:56 10° N visible
29 Nov 4.6 18:54:54 10° SW 18:58:40 20° W 19:02:23 10° NW visible
30 Nov 4.9 05:25:12 10° NE 05:28:21 17° E 05:31:29 10° SE visible
30 Nov 2.8 16:43:34 10° SE 16:48:05 31° ENE 16:52:31 10° N visible
30 Nov 3.6 18:22:35 10° SSW 18:27:24 36° W 18:32:08 10° NNW visible
01 Dec 2.3 17:51:04 10° S 17:56:17 69° WSW 18:01:23 10° NNW visible
02 Dec 3.6 06:01:29 10° NNE 06:06:03 37° E 06:10:35 10° SSE visible
02 Dec 2.0 17:20:08 10° SSE 17:25:17 64° ENE 17:30:18 10° N visible
02 Dec 4.8 19:01:48 10° SW 19:05:07 17° W 19:08:23 10° NW visible
03 Dec 4.8 05:31:14 10° NE 05:34:46 20° E 05:38:18 10° SE visible
03 Dec 2.6 16:49:46 10° SE 16:54:24 34° ENE 16:58:57 10° N visible
03 Dec 3.8 18:29:13 10° SSW 18:33:49 31° W 18:38:20 10° NNW visible
04 Dec 2.6 17:57:32 10° S 18:02:39 60° W 18:07:40 10° NNW visible
05 Dec 3.3 06:07:44 10° NNE 06:12:25 43° E 06:17:06 10° S visible
05 Dec 1.9 17:26:28 10° SSE 17:31:37 73° ENE 17:36:39 10° N visible
05 Dec 4.9 19:08:48 10° WSW 19:11:33 14° W 19:14:16 10° WNW visible
06 Dec 4.5 05:37:19 10° NE 05:41:11 23° E 05:45:02 10° SE visible
06 Dec 2.4 16:55:58 10° SE 17:00:43 39° ENE 17:05:22 10° N visible
06 Dec 4.0 18:35:53 10° SSW 18:40:13 27° W 18:44:30 10° NW visible
07 Dec 5.2 05:08:11 10° ENE 05:09:48 11° E 05:11:23 10° ESE visible
07 Dec 2.8 18:04:02 10° S 18:09:02 51° W 18:13:56 10° NNW visible
